Date String (YYYY-MM-DD hh:mm:ss) UTC,Instrument flags,absolute air pressure of the measurement (hPa),sample flow rate (lpm),inlet stack bypass flow (lpm),air temperature of the measurement (°C),ambient temperature measured by the external sensor (°C),aerosol sample conditioner tube jacket temperature (°C),OPC LED temperature (°C),internal box temperature (°C),relative humidity of the measurement (%),span deviation,mass concentration of particles derived from Lorenz-Mie calculation of OPC scattering (μg/m³),mass concentration of particles derived from Lorenz-Mie calculation of OPC scattering (μg/m³),mass concentration of particles derived from Lorenz-Mie calculation of OPC scattering (μg/m³)
DateTimeUTC,F1_M11,P_M11,Q1_M11,Q2_M11,T1_M11,T2_M11,T3_M11,T4_M11,T5_M11,U1_M11,ZSPAN_M11,X2_M11,X0_M11,X1_M11
2023-11-12 20:00:00,SystemResetWarning,0837.2,5.00,000.00,028.8,028.1,000.0,036.9,030.3,6.7,0000.0,0003.39,0010.68,0002.62
2023-11-12 20:01:00,SystemResetWarning,0837.2,5.00,000.00,028.8,027.9,000.0,036.9,030.3,6.6,0000.0,0003.40,0009.93,0002.63
2023-11-12 20:02:00,SystemResetWarning,0837.1,5.00,000.00,028.8,026.2,000.0,036.9,030.1,6.7,0000.0,0003.39,0009.05,0002.64
2023-11-12 20:03:00,SystemResetWarning,0837.0,5.00,000.00,028.6,024.2,000.0,036.8,029.7,6.7,0000.0,0003.40,0009.51,0002.65
2023-11-12 20:04:00,SystemResetWarning,0837.0,5.01,000.00,028.5,024.0,000.0,036.7,029.4,6.8,0000.0,0003.43,0009.46,0002.64
2023-11-12 20:05:00,SystemResetWarning,0836.9,5.01,000.00,028.3,024.4,000.0,036.7,029.0,6.9,0000.0,0003.47,0009.35,0002.67
2023-11-12 20:06:00,SystemResetWarning,0837.0,4.99,000.00,028.2,024.9,000.0,036.6,029.0,7.0,0000.0,0003.50,0009.18,0002.70
2023-11-12 20:07:00,SystemResetWarning,0836.9,5.00,000.00,028.1,025.3,000.0,036.6,029.2,6.9,0000.0,0003.53,0008.73,0002.72
2023-11-12 20:08:00,SystemResetWarning,0836.9,5.00,000.00,028.1,025.7,000.0,036.6,029.3,6.9,0000.0,0003.58,0009.33,0002.76
2023-11-12 20:09:00,SystemResetWarning,0836.9,5.00,000.00,028.1,026.1,000.0,036.5,029.4,6.8,0000.0,0003.59,0010.10,0002.78
2023-11-12 20:10:00,SystemResetWarning,0837.0,5.00,000.00,028.1,026.3,000.0,036.5,029.4,6.7,0000.0,0003.59,0010.16,0002.82
2023-11-12 20:11:00,SystemResetWarning,0837.0,5.00,000.00,028.1,026.6,000.0,036.5,029.5,6.6,0000.0,0003.61,0010.28,0002.88
2023-11-12 20:12:00,SystemResetWarning,0837.0,5.01,000.00,028.2,026.8,000.0,036.5,029.6,6.6,0000.0,0003.62,0010.29,0002.91
2023-11-12 20:13:00,SystemResetWarning,0836.9,5.00,000.00,028.2,026.9,000.0,036.5,029.7,6.5,0000.0,0003.63,0010.45,0002.93
2023-11-12 20:14:00,SystemResetWarning,0837.0,5.00,000.00,028.2,027.1,000.0,036.5,029.7,6.5,0000.0,0003.64,0010.10,0002.94
2023-11-12 20:15:00,SystemResetWarning,0837.0,5.00,000.00,028.2,027.2,000.0,036.5,029.7,6.6,0000.0,0003.62,0009.94,0002.94
2023-11-12 20:16:00,SystemResetWarning,0837.0,5.01,000.00,028.3,027.3,000.0,036.5,029.8,6.6,0000.0,0003.62,0010.44,0002.93
2023-11-12 20:17:00,SystemResetWarning,0837.0,5.01,000.00,028.3,027.4,000.0,036.5,029.8,6.6,0000.0,0003.58,0010.29,0002.91
2023-11-12 20:18:00,SystemResetWarning,0837.1,5.00,000.00,028.4,027.5,000.0,036.5,029.9,6.6,0000.0,0003.51,0010.10,0002.88
2023-11-12 20:19:00,SystemResetWarning,0837.1,5.01,000.00,028.4,027.5,000.0,036.5,029.9,6.6,0000.0,0003.46,0009.45,0002.85
2023-11-12 20:20:00,SystemResetWarning,0837.0,4.99,000.00,028.4,027.6,000.0,036.6,030.0,6.6,0000.0,0003.44,0008.60,0002.83
2023-11-12 20:21:00,SystemResetWarning,0837.0,5.01,000.00,028.5,027.7,000.0,036.6,030.0,6.6,0000.0,0003.40,0008.52,0002.80
2023-11-12 20:22:00,SystemResetWarning,0837.0,5.00,000.00,028.5,027.7,000.0,036.6,030.1,6.7,0000.0,0003.35,0008.08,0002.76
2023-11-12 20:23:00,SystemResetWarning,0837.0,5.00,000.00,028.5,027.8,000.0,036.6,030.1,6.7,0000.0,0003.34,0007.72,0002.72
2023-11-12 20:24:00,SystemResetWarning,0837.0,5.00,000.00,028.6,027.8,000.0,036.7,030.1,6.7,0000.0,0003.37,0007.75,0002.72
2023-11-12 20:25:00,SystemResetWarning,0837.0,4.99,000.00,028.6,027.9,000.0,036.7,030.1,6.7,0000.0,0003.36,0007.66,0002.73
2023-11-12 20:26:00,SystemResetWarning,0837.0,5.00,000.00,028.6,027.9,000.0,036.7,030.2,6.7,0000.0,0003.37,0007.82,0002.76
2023-11-12 20:27:00,SystemResetWarning,0837.0,5.00,000.00,028.7,028.0,000.0,036.7,030.2,6.6,0000.0,0003.38,0007.64,0002.78
2023-11-12 20:28:00,SystemResetWarning,0837.0,5.00,000.00,028.7,027.4,000.0,036.8,030.2,6.7,0000.0,0003.38,0007.74,0002.80
2023-11-12 20:29:00,SystemResetWarning,0837.0,5.01,000.00,028.6,025.1,000.0,036.7,029.9,6.7,0000.0,0003.41,0008.35,0002.84
2023-11-12 20:30:00,SystemResetWarning,0836.9,4.99,000.00,028.5,023.8,000.0,036.7,029.6,6.8,0000.0,0003.46,0008.68,0002.90
2023-11-12 20:31:00,SystemResetWarning,0836.9,5.02,000.00,028.3,023.9,000.0,036.6,029.2,6.8,0000.0,0003.51,0009.20,0002.95
2023-11-12 20:32:00,SystemResetWarning,0837.0,5.00,000.00,028.1,024.4,000.0,036.5,028.9,6.9,0000.0,0003.56,0009.18,0003.00
2023-11-12 20:33:00,SystemResetWarning,0836.9,5.00,000.00,028.1,024.9,000.0,036.5,029.0,7.0,0000.0,0003.61,0009.02,0003.05
2023-11-12 20:34:00,SystemResetWarning,0836.9,5.00,000.00,028.0,025.3,000.0,036.4,029.1,7.1,0000.0,0003.67,0009.10,0003.09
2023-11-12 20:35:00,SystemResetWarning,0836.9,5.00,000.00,028.0,025.7,000.0,036.4,029.2,7.1,0000.0,0003.64,0009.04,0003.10
2023-11-12 20:36:00,SystemResetWarning,0837.0,5.00,000.00,028.0,026.1,000.0,036.4,029.4,7.2,0000.0,0003.66,0009.41,0003.13
2023-11-12 20:37:00,SystemResetWarning,0837.0,5.00,000.00,028.1,026.4,000.0,036.4,029.4,7.3,0000.0,0003.66,0009.80,0003.15
2023-11-12 20:38:00,SystemResetWarning,0837.0,4.99,000.00,028.1,026.6,000.0,036.4,029.5,7.4,0000.0,0003.65,0009.89,0003.16
2023-11-12 20:39:00,SystemResetWarning,0837.0,5.00,000.00,028.1,026.8,000.0,036.4,029.6,7.3,0000.0,0003.69,0010.21,0003.17
2023-11-12 20:40:00,SystemResetWarning,0836.9,4.99,000.00,028.2,027.0,000.0,036.4,029.6,7.3,0000.0,0003.74,0010.10,0003.18
2023-11-12 20:41:00,SystemResetWarning,0837.0,5.00,000.00,028.2,027.1,000.0,036.4,029.7,7.1,0000.0,0003.78,0010.29,0003.20
2023-11-12 20:42:00,SystemResetWarning,0837.0,5.00,000.00,028.2,027.3,000.0,036.4,029.8,6.8,0000.0,0003.81,0009.85,0003.21
2023-11-12 20:43:00,SystemResetWarning,0837.0,5.00,000.00,028.3,027.4,000.0,036.4,029.8,6.7,0000.0,0003.84,0009.89,0003.22
2023-11-12 20:44:00,SystemResetWarning,0837.0,5.00,000.00,028.3,027.5,000.0,036.4,029.9,6.6,0000.0,0003.84,0009.95,0003.23
2023-11-12 20:45:00,SystemResetWarning,0836.9,5.00,000.00,028.4,027.6,000.0,036.4,029.9,6.8,0000.0,0003.81,0010.23,0003.24
2023-11-12 20:46:00,SystemResetWarning,0836.9,5.01,000.00,028.4,027.6,000.0,036.5,030.0,7.0,0000.0,0003.84,0010.59,0003.25
2023-11-12 20:47:00,SystemResetWarning,0837.0,5.00,000.00,028.5,027.4,000.0,036.5,030.0,7.1,0000.0,0003.80,0010.15,0003.22
2023-11-12 20:48:00,SystemResetWarning,0837.0,4.98,000.00,028.4,025.5,000.0,036.5,029.7,7.2,0000.0,0003.77,0009.59,0003.19
2023-11-12 20:49:00,SystemResetWarning,0836.9,5.02,000.00,028.3,023.8,000.0,036.4,029.3,7.1,0000.0,0003.76,0008.85,0003.18
2023-11-12 20:50:00,SystemResetWarning,0836.9,5.00,000.00,028.1,023.8,000.0,036.4,029.1,7.2,0000.0,0003.75,0008.48,0003.19
2023-11-12 20:51:00,SystemResetWarning,0836.8,4.99,000.00,028.0,024.2,000.0,036.3,028.8,7.0,0000.0,0003.75,0008.42,0003.20
2023-11-12 20:52:00,SystemResetWarning,0836.9,5.00,000.00,027.9,024.7,000.0,036.2,028.8,7.1,0000.0,0003.73,0008.07,0003.20
2023-11-12 20:53:00,SystemResetWarning,0837.0,5.01,000.00,027.8,025.2,000.0,036.2,029.0,7.3,0000.0,0003.73,0008.85,0003.21
2023-11-12 20:54:00,SystemResetWarning,0837.0,5.00,000.00,027.8,025.5,000.0,036.2,029.1,7.2,0000.0,0003.71,0008.85,0003.23
2023-11-12 20:55:00,SystemResetWarning,0837.0,5.00,000.00,027.9,025.9,000.0,036.2,029.2,7.3,0000.0,0003.71,0008.84,0003.23
2023-11-12 20:56:00,SystemResetWarning,0837.0,5.00,000.00,027.9,026.2,000.0,036.2,029.3,7.2,0000.0,0003.72,0008.62,0003.23
2023-11-12 20:57:00,SystemResetWarning,0837.0,4.99,000.00,027.9,026.4,000.0,036.1,029.4,7.2,0000.0,0003.72,0008.57,0003.24
2023-11-12 20:58:00,SystemResetWarning,0836.9,5.00,000.00,027.9,026.6,000.0,036.2,029.5,7.2,0000.0,0003.78,0008.76,0003.28
2023-11-12 20:59:00,SystemResetWarning,0836.9,5.00,000.00,028.0,026.8,000.0,036.2,029.5,7.3,0000.0,0003.81,0009.40,0003.31
